Regional Weather Roundup
Issued by NWS Mt. Holly, NJ

Current Version | Previous Version | Text Only | Print | Product List | Glossary On
Versions: 1 2 3 4 5 6 7 8 9 10 11 12 13 14 15 16 17 18 19 20 21 22 23 24 25 26 27 28 29 30 31 32 33 34 35 36 37 38 39 40 41 42 43 44 45 46 47 48 49 50
000
ASUS41 KPHI 301711
RWRPHI

REGIONAL WEATHER ROUNDUP
NATIONAL WEATHER SERVICE MOUNT HOLLY NJ
100 PM EDT SUN AUG 30 2015

NOTE:  "FAIR" INDICATES FEW OR NO CLOUDS BELOW 12,000 FEET WITH NO
SIGNIFICANT WEATHER AND/OR OBSTRUCTIONS TO VISIBILITY.

 * = STATION DOES NOT REPORT PRECIPITATION (E.G. RAIN, SNOW, ETC.)
        OR FOG.

NJZ015>026-301800-
SOUTHERN NEW JERSEY

CITY           SKY/WX    TMP DP  RH WIND       PRES   REMARKS
POMONA         MOSUNNY   87  62  43 W10       30.11F
WILDWOOD*      CLOUDY    81  66  61 S9        30.14F
MILLVILLE      PTSUNNY   82  65  56 W8        30.12F
WRIGHTSTOWN    SUNNY     86  68  54 SW6       30.07F
MOUNT HOLLY    SUNNY     86  64  47 VRB3      30.09F
TRENTON        MOSUNNY   85  66  53 SW9       30.09F

$$
NJZ001>014-301800-
NORTHERN NEW JERSEY

CITY           SKY/WX    TMP DP  RH WIND       PRES   REMARKS
SUSSEX         LGT RAIN  83  67  58 VRB6      30.08F
ANDOVER*         N/A     82  67  60 VRB7      30.10F
MORRISTOWN     PTSUNNY   88  66  48 SW7       30.08F HX  90
NEWARK         PTSUNNY   87  65  47 S8        30.07F
TETERBORO      MOSUNNY   86  63  45 S7        30.06F
CALDWELL       MOSUNNY   85  65  51 VRB5      30.07F
SOMERVILLE     MOSUNNY   87  65  47 VRB3      30.06F
ALLAIRE*       SUNNY     84  64  51 SW6       30.09F
TOMS RIVER*    SUNNY     88  64  45 S3        30.09F

$$
PAZ043-044-047-054-055-060>062-066>071-301800-
EASTERN PENNSYLVANIA

CITY           SKY/WX    TMP DP  RH WIND       PRES   REMARKS
PHILADELPHIA   PTSUNNY   86  64  47 SW9       30.09F
NORTH PHILA    SUNNY     87  63  44 VRB6      30.10F
BLUE BELL      SUNNY     88  68  51 SW5       30.09F HX  91
DOYLESTOWN     MOSUNNY   82  65  56 CALM      30.09F
QUAKERTOWN*    MOSUNNY   84  66  54 SW7       30.11F
POTTSTOWN      SUNNY     85  67  54 S7        30.11F
LANCASTER      SUNNY     84  66  54 NW5       30.10F
COATESVILLE    SUNNY     82  68  61 SW6       30.12F
READING        MOSUNNY   86  67  52 NW6       30.08F
ALLENTOWN      MOSUNNY   85  66  53 SW3       30.09F
MOUNT POCONO   PTSUNNY   78  63  59 W13       30.15F
HAZLETON       MOSUNNY   81  64  57 CALM      30.17S
WILKES BARRE   MOSUNNY   83  65  54 VRB3      30.10F

$$
DEZALL-MDZ008-012-015-019-020-301800-
DELAWARE AND EASTERN MARYLAND

CITY           SKY/WX    TMP DP  RH WIND       PRES   REMARKS
WILMINGTON     MOSUNNY   85  66  53 S10       30.11F
DOVER          PTSUNNY   84  68  58 S9        30.10F
GEORGETOWN     CLOUDY    82  66  58 SW10      30.14F
EASTON         MOSUNNY   81  66  61 SW12      30.16F
PATUXENT       CLOUDY    82  65  56 S8        30.13F
OCEAN CITY     CLOUDY    82  64  54 S8        30.14F
WALLOPS ISLAND PTSUNNY   84  65  52 S8        30.14F
CAMBRIDGE      CLOUDY    82  63  51 S3        30.13F
SALISBURY      CLOUDY    83  68  60 SW7       30.14F

$$
PAZ001-021-NYZ056-072-MDZ011-DCZ001-301800-
OTHER NEARBY LOCATIONS

CITY           SKY/WX    TMP DP  RH WIND       PRES   REMARKS
HARRISBURG     PTSUNNY   85  67  54 CALM      30.08F
STATE COLLEGE  PTSUNNY   77  66  69 CALM      30.13F
WILLIAMSPORT   MOSUNNY   80  62  54 SW6       30.08F
BINGHAMTON     PTSUNNY   74  61  63 W6        30.12F
NEW YORK CITY  PTSUNNY   87  63  44 MISG      30.10F
BALTIMORE      CLOUDY    81  67  62 S6        30.11F
WASHINGTON DC  CLOUDY    79  67  66 S7        30.13F

$$


USA.gov is the U.S. government's official web portal to all federal, state and local government web resources and services.